| DS18B20 | SHTC3 | PZEM-004T | WiFi | ||||||||
|---|---|---|---|---|---|---|---|---|---|---|---|
| ID | Date d/m/Y & Time | data1 สูง | data2 ต่ำ | data3 นอก | temp pcb | hum pcb | Volt | Amp | Watt | rssi | Time |
| 16888 | 28/08/2026 22:11:53 | 31.9  | 31.8  | 29.5  | 32.9  | 65.4  | 225.3  | 0.04  | 4.5  | -62  | 22:11 |
| 16887 | 28/08/2026 22:07:09 | 31.9  | 31.9  | 29.7  | 33.0  | 65.6  | 226.8  | 0.04  | 4.5  | -62  | 22:07 |
| 16886 | 28/08/2026 22:02:26 | 31.9  | 31.9  | 29.7  | 32.8  | 65.4  | 225.6  | 0.04  | 4.5  | -62  | 22:02 |
| 16885 | 28/08/2026 21:57:42 | 31.9  | 31.9  | 29.7  | 33.0  | 65.5  | 227.0  | 0.04  | 4.5  | -62  | 21:57 |
| 16884 | 28/08/2026 21:52:59 | 32.0  | 31.9  | 29.7  | 33.0  | 65.5  | 228.7  | 0.04  | 4.6  | -62  | 21:52 |
| 16883 | 28/08/2026 21:48:16 | 32.0  | 31.9  | 29.6  | 32.9  | 65.3  | 227.3  | 0.04  | 4.5  | -62  | 21:48 |
| 16882 | 28/08/2026 21:43:32 | 32.0  | 31.9  | 29.8  | 33.1  | 65.3  | 228.9  | 0.04  | 4.5  | -61  | 21:43 |
| 16881 | 28/08/2026 21:38:49 | 32.1  | 32.0  | 29.9  | 33.1  | 65.2  | 227.9  | 0.04  | 4.5  | -62  | 21:38 |
| 16880 | 28/08/2026 21:34:06 | 32.1  | 32.0  | 29.9  | 33.1  | 65.3  | 227.1  | 0.04  | 4.5  | -62  | 21:34 |
| 16879 | 28/08/2026 21:29:22 | 32.1  | 32.1  | 29.9  | 33.2  | 65.3  | 228.6  | 0.04  | 4.5  | -62  | 21:29 |
| 16878 | 28/08/2026 21:24:38 | 32.1  | 32.1  | 29.9  | 33.0  | 65.3  | 227.0  | 0.04  | 4.5  | -62  | 21:24 |
| 16877 | 28/08/2026 21:19:55 | 32.1  | 32.1  | 29.9  | 33.3  | 65.2  | 228.6  | 0.04  | 4.5  | -62  | 21:19 |
| 16876 | 28/08/2026 21:15:12 | 32.1  | 32.1  | 29.9  | 33.2  | 65.2  | 228.6  | 0.04  | 4.5  | -62  | 21:15 |
| 16875 | 28/08/2026 21:10:28 | 32.2  | 32.1  | 29.9  | 33.3  | 65.3  | 226.3  | 0.04  | 4.5  | -62  | 21:10 |
| 16874 | 28/08/2026 21:05:45 | 32.2  | 32.2  | 30.0  | 33.1  | 65.2  | 229.0  | 0.04  | 4.5  | -60  | 21:05 |
| 16873 | 28/08/2026 21:01:02 | 32.2  | 32.2  | 29.9  | 33.1  | 65.1  | 227.0  | 0.04  | 4.5  | -62  | 21:01 |
| 16872 | 28/08/2026 20:56:19 | 32.2  | 32.2  | 29.9  | 33.3  | 65.1  | 227.0  | 0.04  | 4.5  | -62  | 20:56 |
| 16871 | 28/08/2026 20:51:35 | 32.2  | 32.2  | 29.9  | 33.3  | 65.2  | 229.7  | 0.04  | 4.5  | -62  | 20:51 |
| 16870 | 28/08/2026 20:46:51 | 32.2  | 32.2  | 29.9  | 33.5  | 65.1  | 227.7  | 0.04  | 4.5  | -61  | 20:46 |
| 16869 | 28/08/2026 20:42:08 | 32.2  | 32.3  | 29.9  | 33.2  | 65.0  | 227.2  | 0.04  | 4.5  | -62  | 20:42 |
| 16868 | 28/08/2026 20:37:23 | 32.2  | 32.3  | 29.9  | 33.4  | 65.1  | 226.8  | 0.04  | 4.5  | -62  | 20:37 |
| 16867 | 28/08/2026 20:32:40 | 32.3  | 32.4  | 29.9  | 33.4  | 65.0  | 228.3  | 0.04  | 4.5  | -61  | 20:32 |
| 16866 | 28/08/2026 20:27:56 | 32.3  | 32.4  | 29.9  | 33.4  | 65.1  | 226.8  | 0.04  | 4.5  | -61  | 20:27 |
| 16865 | 28/08/2026 20:23:13 | 32.4  | 32.4  | 29.9  | 33.4  | 65.0  | 229.3  | 0.04  | 4.5  | -61  | 20:23 |